Погода в Чурилове

Россия / Псковская область     56°30′49″N   29°40′02″E
темп.,
°C
ветер,
м/с
пор.,
м/с
влажн.,
%
обл.,
%
осадки,
мм/ч
давл.,
гПа
погр.,
м
20 апреля, вт
вт2000:00+7в267834 0.0 1022282
03:00+5св2682100 0.0 1021169
06:00+5всв2682100 0.1 1020298
09:00+5вюв4688100 0.2 1019679
12:00+4в3592100 0.3 1019763
15:00+7вюв4575100 0.4 1017925
18:00+6в3580100 0.1 1016815
21:00+4в3694100 0.3 1015831
21 апреля, ср
ср2100:00+4с2494100 0.1 1013216
03:00+4с2490100 0.1 1011216
06:00+4ссв2691100 0.0 1009299
09:00+5ссз3583100 0.0 1008508
12:00+8сз4663100 0.1 10061367
15:00+8зсз4661100 0.4 10061312
18:00+9з365376 0.1 10061488
21:00+6юз247733 0.1 100791
22 апреля, чт
чт2200:00+4ююз288794 0.0 1007160
03:00+4ююз3108862 0.0 1007228
06:00+3ююз2895100 0.1 1008186
09:00+9юз477360 0.1 1008446
12:00+13ююз575055 0.2 10091689
15:00+13ююз374855 0.3 10081671
18:00+12ююз4861100 0.4 10091250
21:00+8з3788100 1.4 1010358
23 апреля, пт
пт2300:00+5зсз1189100 0.0 101013
03:00+6сз2488100 0.2 1009328
06:00+3ю1397100 6.1 1009234
09:00+5ююз4884100 6.1 1010791
12:00+7юз5759100 0.2 10101697
15:00+8ююз5853100 0.3 10101922
18:00+7ююз476189 0.4 10101239
21:00+3ююз268196 0.8 1010129
24 апреля, сб
сб2400:00+1юз268714 0.0 1010139
03:000зюз389675 0.0 1009447
06:00+1зюз489098 0.1 1009625
09:00+2зюз468196 0.3 1009824
12:00+2з478295 0.5 1010780
15:00+5з3561100 0.7 10101404
18:00+5зсз4670100 0.8 10101088
21:00+2зсз3882100 1.4 1010408